Location: Chacón
(10.5789°N, 66.9317°W)
Time: 06:28:16
(UTC+00:00)

BREEZE-M DEB (TANK) - Pass Details

Date: 10 August 2024
Orbit: 332 x 16052 km, 49.4° (Epoch: 18 September)

Event Time Altitude Azimuth Distance (km) Brightness Sun altitude
Rises 23:32:59 0° 222° (SW) 21,531 10.7 -11.3°
Reaches altitude 10° 00:11:43 10° 229° (SW) 19,293 10.4 -20.2°
Maximum altitude 01:31:49 39° 296° (WNW) 5,681 7.6 -38.1°
Drops below altitude 10° 01:45:13 10° 6° (N) 4,269 7.0 -41.0°
Sets 01:47:34 0° 16° (NNE) 4,602 7.2 -41.4°
